Weather History for Logansport, IN

Change the Weather History Date:

Sunday, October 21, 2012

  Actual Average Record
Temperature  
Mean Temperature 49 °F -  
Max Temperature 66 °F 59 °F 53 °F (2013)
Min Temperature 32 °F 37 °F 35 °F (2013)
Degree Days  
Heating Degree Days 16    
Moisture  
Dew Point 41 °F    
Average Humidity 84    
Maximum Humidity 100    
Minimum Humidity 49    
Precipitation  
Precipitation 0.00 in - - ()
Sea Level Pressure  
Sea Level Pressure 30.04 in    
Wind  
Wind Speed 5 mph ()    
Max Wind Speed 10 mph    
Max Gust Speed -    
Visibility 7.2 miles    
Events Fog    
Averages and records for this station are not official NWS values.
T = Trace of Precipitation, MM = Missing Value Source: Averaged Metar Reports

Daily Weather History Graph

Daily Weather History Graph

Search for Another Location

Airport:

Trip Planner

Search our weather history database for the weather conditions in past years. The results will help you decide how hot, cold, wet, or windy it might be!

Date:

Astronomy

Oct. 21, 2012 Rise Set
Actual Time 8:03 AM EDT 6:55 PM EDT
Civil Twilight 7:35 AM EDT 7:23 PM EDT
Nautical Twilight 7:04 AM EDT 7:55 PM EDT
Astronomical Twilight 6:32 AM EDT 8:26 PM EDT
Moon 2:24 PM EDT No Moon Set
Length of Visible Light 11h 47m
Length of Day
10h 51m
Waxing Crescent, 45% of the Moon is Illuminated
Oct 21
Waxing Crescent
Oct 21
First Quarter
Oct 29
Full
Nov 6
Last Quarter
Nov 13
New

Hourly Weather History & Observations

Time (EDT) Temp. Windchill Dew Point Humidity Pressure Visibility Wind Dir Wind Speed Gust Speed Precip Events Conditions
12:15 AM 37.4 °F 33.8 °F 35.6 °F 93% 29.96 in 10.0 mi South 4.6 mph - N/A   Clear
12:35 AM 37.4 °F 32.8 °F 35.6 °F 93% 29.96 in 10.0 mi South 5.8 mph - N/A   Clear
12:55 AM 37.4 °F 32.1 °F 35.6 °F 93% 29.97 in 10.0 mi SSW 6.9 mph - N/A   Clear
1:15 AM 37.4 °F 32.8 °F 35.6 °F 93% 29.98 in 10.0 mi SSW 5.8 mph - N/A   Clear
1:35 AM 37.4 °F 32.8 °F 35.6 °F 93% 29.99 in 10.0 mi SSW 5.8 mph - N/A   Clear
1:55 AM 37.4 °F 33.8 °F 35.6 °F 93% 29.99 in 10.0 mi SSW 4.6 mph - N/A   Clear
2:15 AM 37.4 °F 34.9 °F 35.6 °F 93% 30.01 in 10.0 mi SW 3.5 mph - N/A   Clear
2:35 AM 37.4 °F - 35.6 °F 93% 30.01 in 7.0 mi Calm Calm - N/A   Clear
2:55 AM 37.4 °F 34.9 °F 35.6 °F 93% 30.02 in 7.0 mi SSW 3.5 mph - N/A   Clear
3:15 AM 37.4 °F - 37.4 °F 100% 30.03 in 7.0 mi Calm Calm - N/A   Clear
3:35 AM 35.6 °F 32.8 °F 35.6 °F 100% 30.03 in 7.0 mi South 3.5 mph - N/A   Clear
3:55 AM 35.6 °F 32.8 °F 35.6 °F 100% 30.03 in 5.0 mi South 3.5 mph - N/A   Clear
4:15 AM 35.6 °F 32.8 °F 35.6 °F 100% 30.03 in 2.0 mi SE 3.5 mph - N/A   Clear
4:35 AM 35.6 °F 32.8 °F 33.8 °F 93% 30.03 in 0.5 mi SE 3.5 mph - N/A Fog Fog
4:55 AM 33.8 °F 30.8 °F 33.8 °F 100% 30.03 in 1.5 mi ESE 3.5 mph - N/A   Mist
5:15 AM 35.6 °F 32.8 °F 35.6 °F 100% 30.04 in 0.8 mi SE 3.5 mph - N/A   Mist
5:35 AM 35.6 °F 32.8 °F 33.8 °F 93% 30.04 in 0.5 mi ESE 3.5 mph - N/A Fog Fog
5:55 AM 35.6 °F 32.8 °F 33.8 °F 93% 30.05 in 0.5 mi ESE 3.5 mph - N/A Fog Fog
6:15 AM 35.6 °F 32.8 °F 33.8 °F 93% 30.05 in 0.2 mi ESE 3.5 mph - N/A Fog Fog
6:35 AM 33.8 °F 30.8 °F 33.8 °F 100% 30.05 in 0.2 mi SE 3.5 mph - N/A Fog Fog
6:55 AM 33.8 °F 29.6 °F 33.8 °F 100% 30.06 in 1.5 mi SSE 4.6 mph - N/A   Mist
7:15 AM 33.8 °F 29.6 °F 33.8 °F 100% 30.06 in 0.8 mi SSE 4.6 mph - N/A   Mist
7:35 AM 32.0 °F 27.5 °F 32.0 °F 100% 30.06 in 0.5 mi SE 4.6 mph - N/A Fog Fog
7:55 AM 33.8 °F 29.6 °F 33.8 °F 100% 30.07 in 1.5 mi East 4.6 mph - N/A   Mist
8:15 AM 33.8 °F 29.6 °F 33.8 °F 100% 30.07 in 1.5 mi ESE 4.6 mph - N/A   Mist
8:35 AM 33.8 °F 28.6 °F 33.8 °F 100% 30.07 in 0.2 mi North 5.8 mph - N/A Fog Fog
8:55 AM 35.6 °F 31.7 °F 35.6 °F 100% 30.07 in 0.5 mi ESE 4.6 mph - N/A Fog Fog
9:15 AM 41.0 °F 37.1 °F 41.0 °F 100% 30.07 in 5.0 mi East 5.8 mph - N/A   Clear
9:35 AM 42.8 °F 39.3 °F 42.8 °F 100% 30.08 in 7.0 mi North 5.8 mph - N/A   Clear
9:55 AM 44.6 °F 40.7 °F 44.6 °F 100% 30.08 in 7.0 mi NE 6.9 mph - N/A   Clear
10:15 AM 46.4 °F 42.9 °F 44.6 °F 93% 30.08 in 10.0 mi SSE 6.9 mph - N/A   Clear
10:55 AM 51.8 °F - 44.6 °F 76% 30.10 in 7.0 mi South 6.9 mph - N/A   Clear
11:15 AM 53.6 °F - 46.4 °F 77% 30.10 in 10.0 mi SSE 9.2 mph - N/A   Clear
11:55 AM 55.4 °F - 46.4 °F 72% 30.10 in 10.0 mi South 10.4 mph - N/A   Clear
12:15 PM 57.2 °F - 46.4 °F 67% 30.09 in 10.0 mi SSE 9.2 mph - N/A   Clear
1:15 PM 60.8 °F - 48.2 °F 63% 30.07 in 10.0 mi SSE 10.4 mph - N/A   Clear
1:35 PM 60.8 °F - 48.2 °F 63% 30.06 in 10.0 mi SSE 9.2 mph - N/A   Clear
1:55 PM 62.6 °F - 48.2 °F 59% 30.06 in 10.0 mi SE 9.2 mph - N/A   Clear
2:15 PM 62.6 °F - 48.2 °F 59% 30.05 in 10.0 mi SSE 9.2 mph - N/A   Clear
2:35 PM 62.6 °F - 48.2 °F 59% 30.04 in 10.0 mi SSE 9.2 mph - N/A   Clear
2:55 PM 64.4 °F - 48.2 °F 56% 30.04 in 10.0 mi SE 10.4 mph - N/A   Clear
3:15 PM 64.4 °F - 46.4 °F 52% 30.03 in 10.0 mi SE 6.9 mph - N/A   Clear
3:35 PM 64.4 °F - 48.2 °F 56% 30.03 in 10.0 mi SE 9.2 mph - N/A   Clear
3:55 PM 64.4 °F - 48.2 °F 56% 30.03 in 10.0 mi SSE 9.2 mph - N/A   Clear
4:35 PM 66.2 °F - 48.2 °F 52% 30.02 in 10.0 mi SSE 9.2 mph - N/A   Clear
4:55 PM 66.2 °F - 46.4 °F 49% 30.02 in 10.0 mi SE 10.4 mph - N/A   Clear
5:15 PM 64.4 °F - 46.4 °F 52% 30.02 in 10.0 mi SE 8.1 mph - N/A   Clear
5:35 PM 64.4 °F - 48.2 °F 56% 30.02 in 5.0 mi SE 10.4 mph - N/A   Haze
6:35 PM 60.8 °F - 50.0 °F 68% 30.01 in 10.0 mi SE 8.1 mph - N/A   Clear
6:55 PM 57.2 °F - 50.0 °F 77% 30.02 in 10.0 mi SE 4.6 mph - N/A   Clear
7:15 PM 55.4 °F - 48.2 °F 77% 30.02 in 10.0 mi ESE 4.6 mph - N/A   Clear
7:35 PM 53.6 °F - 46.4 °F 77% 30.03 in 10.0 mi ESE 6.9 mph - N/A   Clear
7:55 PM 50.0 °F - 46.4 °F 87% 30.03 in 10.0 mi ESE 5.8 mph - N/A   Clear
8:15 PM 51.8 °F - 46.4 °F 82% 30.03 in 10.0 mi ESE 6.9 mph - N/A   Clear
8:35 PM 51.8 °F - 46.4 °F 82% 30.03 in 10.0 mi ESE 5.8 mph - N/A   Clear
8:55 PM 51.8 °F - 44.6 °F 76% 30.03 in 10.0 mi East 6.9 mph - N/A   Clear
9:35 PM 48.2 °F - 44.6 °F 87% 30.04 in 10.0 mi East 6.9 mph - N/A   Clear
9:55 PM 48.2 °F - 44.6 °F 87% 30.04 in 10.0 mi ESE 6.9 mph - N/A   Clear
10:35 PM 46.4 °F 42.4 °F 44.6 °F 93% 30.04 in 10.0 mi ESE 8.1 mph - N/A   Clear
10:55 PM 48.2 °F - 44.6 °F 87% 30.05 in 10.0 mi ESE 6.9 mph - N/A   Clear
11:15 PM 50.0 °F - 46.4 °F 87% 30.04 in 10.0 mi ESE 6.9 mph - N/A   Clear
11:35 PM 46.4 °F 42.9 °F 44.6 °F 93% 30.04 in 10.0 mi ESE 6.9 mph - N/A   Clear